Flag for U.S.A. Weather past 2 weeks in Cleveland, Ohio, U.S.A.

Now
70 °F

Partly cloudy.


Feels Like: 68 °F
Forecast: 72 / 83 °F
Wind: 5 mph from Southwest

Location: Cleveland-Hopkins International Airport

Current Time: Sep 3, 2015 at 5:34:29 AM

Latest Report: Sep 3, 2015 at 4:51 AM


Visibility: 10 mi

Pressure: 29.98 "Hg

Humidity: 87%

Dew point: 66 °F

Location of ClevelandLocation

Historic Weather in Cleveland — Graph

°F

Cleveland temperature yesterday

Maximum temperature yesterday: 89 °F (at 4:51 PM)
Minimum temperature yesterday: 69 °F (at 5:51 AM)
Average temperature yesterday: 77 °F

Past Weeks' High & Low Weather Summary

 TemperatureHumidityPressure
High89 °F (Sep 2, 4:51 PM)93% (Aug 26, 12:51 AM)30.23 "Hg (Aug 26, 12:51 AM)
Low52 °F (Aug 28, 6:51 AM)35% (Aug 23, 3:51 PM)29.73 "Hg (Aug 20, 3:51 AM)
Average70 °F71%30.05 "Hg
* Reported Aug 19 3:51 AM — Sep 3 3:51 AM, Cleveland, Weather by CustomWeather, © 2015

Note: Actual official high and low records may vary slightly from our data, if they occured in-between our weather recording intervals... More about our weather records

Advertising

Cleveland weather history for previous 24 hours

 ConditionsComfort  
Time TempWeatherWind HumidityBarometerVisibility
3:51 AM
Thu, Sep 3
71 °FPartly cloudy.No wind87%29.97 "Hg10 mi
2:51 AM71 °FPassing clouds.3 mph87%29.95 "Hg10 mi
1:51 AM73 °FPassing clouds.3 mph84%29.97 "Hg10 mi
12:51 AM74 °FPassing clouds.7 mph85%29.98 "Hg10 mi
11:51 PM
Wed, Sep 2
75 °FPassing clouds.7 mph79%29.98 "Hg10 mi
10:51 PM74 °FPassing clouds.5 mph82%29.99 "Hg10 mi
9:59 PM76 °FPartly cloudy.3 mph74%30.01 "Hg10 mi
8:51 PM80 °FBroken clouds.5 mph71%29.98 "Hg10 mi
7:51 PM80 °FPartly sunny.5 mph69%29.97 "Hg10 mi
6:51 PM83 °FScattered clouds.8 mph61%29.97 "Hg10 mi
5:51 PM87 °FScattered clouds.10 mph51%29.97 "Hg10 mi
4:51 PM89 °FScattered clouds.13 mph50%29.98 "Hg10 mi
3:51 PM88 °FPassing clouds.12 mph55%30.00 "Hg10 mi
2:51 PM85 °FPassing clouds.5 mph63%30.02 "Hg10 mi
1:51 PM85 °FPartly sunny.8 mph59%30.04 "Hg10 mi
12:51 PM84 °FScattered clouds.9 mph61%30.06 "Hg10 mi
11:51 AM83 °FPassing clouds.9 mph65%30.08 "Hg10 mi
10:51 AM80 °FPassing clouds.7 mph71%30.09 "Hg10 mi
9:51 AM76 °FSunny.6 mph80%30.09 "Hg10 mi
8:51 AM71 °FPassing clouds.7 mph84%30.09 "Hg10 mi
7:51 AM70 °FPassing clouds.9 mph84%30.09 "Hg10 mi
6:51 AM69 °FPassing clouds.5 mph87%30.09 "Hg10 mi
5:51 AM69 °FPassing clouds.5 mph87%30.07 "Hg10 mi
Weather by CustomWeather, © 2015

See weather overviewHow to use our weather pages